Location: Unspecified
(0.0000°N, 0.0000°E)
Time: 09:25:52
(UTC+00:00)

Vanguard 2 - Visible Passes

Search period start: 31 July 2014 00:00
Search period end: 10 August 2014 00:00
Orbit: 554 x 2948 km, 32.9° (Epoch: 30 July)

Date Brightness Start Highest point End Pass type
(mag) Time Alt. Az. Time Alt. Az. Time Alt. Az.
31 Jul 11.4 00:30:31 15° NNE 00:30:31 15° NNE 00:37:30 10° ENE visible
31 Jul 10.7 02:32:18 18° NNW 02:43:03 47° NE 02:59:48 10° ESE visible
31 Jul 10.3 04:39:41 10° WNW 04:56:15 79° SW 05:13:45 10° SE visible
01 Aug 11.3 00:51:39 21° NE 00:51:39 21° NE 01:00:52 10° ENE visible
01 Aug 10.4 02:53:24 27° NNW 03:02:47 60° NE 03:20:27 10° ESE visible
01 Aug 10.4 04:59:41 10° WNW 05:16:07 63° SW 05:33:11 10° SE visible
02 Aug 11.0 01:12:25 28° NE 01:12:25 28° NE 01:23:17 10° E visible
02 Aug 10.2 03:14:08 35° NW 03:22:30 76° NE 03:40:40 10° ESE visible
02 Aug 10.5 05:20:03 10° WNW 05:36:06 50° SSW 05:52:27 10° SE visible
03 Aug 10.8 01:32:52 36° ENE 01:32:52 36° ENE 01:44:56 10° E visible
03 Aug 10.1 03:34:33 40° WNW 03:42:15 86° SW 04:00:33 10° SE visible
03 Aug 10.8 05:40:52 10° W 05:56:16 40° SSW 06:11:37 10° SSE visible
04 Aug 10.6 01:53:00 46° ENE 01:53:00 46° ENE 02:05:56 10° ESE visible
04 Aug 10.1 03:54:40 40° WNW 04:02:06 70° SW 04:20:09 10° SE visible
05 Aug 10.3 02:12:50 55° E 02:12:50 55° E 02:26:26 10° ESE visible
05 Aug 10.3 04:14:29 35° W 04:22:05 55° SSW 04:39:34 10° SE visible
06 Aug 10.2 02:32:26 63° ESE 02:32:26 63° ESE 02:46:32 10° SE visible
06 Aug 10.5 04:34:03 28° W 04:42:16 44° SSW 04:58:51 10° SE visible
07 Aug 11.7 00:50:10 12° ESE 00:50:10 12° ESE 00:50:52 10° ESE visible
07 Aug 10.1 02:51:47 63° SSE 02:51:47 63° SSE 03:06:18 10° SE visible
07 Aug 10.7 04:53:23 21° WSW 05:02:41 34° SSW 05:18:04 10° SSE visible
08 Aug 11.6 01:09:20 16° ESE 01:09:20 16° ESE 01:11:38 10° ESE visible
08 Aug 10.2 03:10:55 56° S 03:10:55 56° S 03:25:51 10° SE visible
08 Aug 11.0 05:12:31 14° WSW 05:23:21 27° SSW 05:37:19 10° SSE visible
09 Aug 11.4 01:28:18 19° ESE 01:28:18 19° ESE 01:31:57 10° ESE visible
09 Aug 10.3 03:29:53 46° SSW 03:29:53 46° SSW 03:45:14 10° SE visible
09 Aug 11.2 05:32:25 10° WSW 05:44:18 22° SSW 05:56:41 10° SSE visible
